| time (UTC) | temp F | wind direction | speed MPH | gust MPH | rain 1hr in | rain 24hr in | rain mn in | humidity % | barometer mb |
| 20260505023004 | 68 | 207 | 0.0 | 2.0 | 0.00 | 0.00 | 0.00 | 61 | 1005.5 |
| 20260505021504 | 68 | 100 | 0.0 | 3.0 | 0.00 | 0.00 | 0.00 | 59 | 1005.3 |
| 20260505020007 | 69 | 139 | 0.0 | 3.0 | 0.00 | 0.00 | 0.00 | 58 | 1005.2 |
| 20260505014503 | 69 | 133 | 0.0 | 5.0 | 0.00 | 0.00 | 0.00 | 57 | 1005.1 |
| 20260505013104 | 69 | 142 | 1.0 | 4.0 | 0.00 | 0.00 | 0.00 | 56 | 1005.0 |
| 20260505011500 | 70 | 134 | 0.0 | 4.0 | 0.00 | 0.00 | 0.00 | 55 | 1004.9 |
| 20260505010108 | 71 | 225 | 0.0 | 4.0 | 0.00 | 0.00 | 0.00 | 53 | 1004.8 |
| 20260505004602 | 71 | 150 | 1.0 | 4.0 | 0.00 | 0.00 | 0.00 | 51 | 1004.8 |
| 20260505003059 | 72 | 171 | 0.0 | 8.0 | 0.00 | 0.00 | 0.00 | 50 | 1004.8 |
| 20260505001600 | 73 | 248 | 1.0 | 5.0 | 0.00 | 0.00 | 0.00 | 49 | 1004.9 |
| 20260505000107 | 73 | 11 | 1.0 | 10.0 | 0.00 | 0.00 | 0.00 | 48 | 1005.0 |
| 20260504234606 | 74 | 306 | 1.0 | 14.0 | 0.00 | 0.00 | 0.00 | 46 | 1005.2 |
| 20260504233058 | 75 | 157 | 2.0 | 9.0 | 0.00 | 0.00 | 0.00 | 46 | 1005.3 |
| 20260504231553 | 75 | 136 | 3.0 | 9.0 | 0.00 | 0.00 | 0.00 | 46 | 1005.3 |
| 20260504230053 | 74 | 283 | 3.0 | 11.0 | 0.00 | 0.00 | 0.00 | 47 | 1005.5 |
| 20260504224553 | 74 | 241 | 3.0 | 7.0 | 0.00 | 0.00 | 0.00 | 50 | 1005.6 |
| 20260504223052 | 75 | 285 | 2.0 | 4.0 | 0.00 | 0.00 | 0.00 | 51 | 1005.7 |
| 20260504221549 | 74 | 182 | 1.0 | 4.0 | 0.00 | 0.00 | 0.00 | 52 | 1005.6 |
| 20260504220055 | 74 | 154 | 2.0 | 6.0 | 0.00 | 0.00 | 0.00 | 50 | 1005.9 |
| 20260504214546 | 75 | 273 | 1.0 | 7.0 | 0.00 | 0.00 | 0.00 | 52 | 1006.3 |
| 20260504213103 | 75 | 135 | 1.0 | 6.0 | 0.00 | 0.00 | 0.00 | 50 | 1006.4 |
| 20260504211544 | 75 | 265 | 1.0 | 8.0 | 0.00 | 0.00 | 0.00 | 49 | 1006.5 |
| 20260504210040 | 75 | 243 | 2.0 | 10.0 | 0.00 | 0.00 | 0.00 | 49 | 1006.7 |
| 20260504204542 | 75 | 269 | 2.0 | 9.0 | 0.00 | 0.00 | 0.00 | 49 | 1006.9 |
| 20260504203035 | 74 | 299 | 1.0 | 7.0 | 0.00 | 0.00 | 0.00 | 51 | 1007.1 |
| 20260504201533 | 74 | 234 | 3.0 | 9.0 | 0.00 | 0.00 | 0.00 | 49 | 1007.2 |
| 20260504200030 | 74 | 283 | 2.0 | 10.0 | 0.00 | 0.00 | 0.00 | 52 | 1007.4 |
| 20260504194525 | 73 | 213 | 2.0 | 9.0 | 0.00 | 0.00 | 0.00 | 54 | 1007.8 |
| 20260504193022 | 71 | 298 | 1.0 | 6.0 | 0.00 | 0.00 | 0.00 | 60 | 1008.1 |
| 20260504191520 | 70 | 36 | 2.0 | 7.0 | 0.00 | 0.00 | 0.00 | 61 | 1008.6 |
| 20260504190019 | 68 | 248 | 1.0 | 11.0 | 0.00 | 0.00 | 0.00 | 61 | 1008.8 |
| 20260504184517 | 69 | 199 | 2.0 | 12.0 | 0.00 | 0.00 | 0.00 | 59 | 1008.8 |
| 20260504183015 | 69 | 248 | 2.0 | 9.0 | 0.00 | 0.00 | 0.00 | 58 | 1008.6 |
| 20260504181518 | 70 | 118 | 5.0 | 10.0 | 0.00 | 0.00 | 0.00 | 56 | 1008.3 |
| 20260504180013 | 70 | 252 | 4.0 | 10.0 | 0.00 | 0.00 | 0.00 | 57 | 1007.9 |
| 20260504174515 | 70 | 167 | 3.0 | 12.0 | 0.00 | 0.00 | 0.00 | 59 | 1007.8 |
| 20260504173007 | 69 | 180 | 3.0 | 8.0 | 0.00 | 0.00 | 0.00 | 62 | 1008.2 |
| 20260504171508 | 68 | 207 | 1.0 | 6.0 | 0.00 | 0.00 | 0.00 | 60 | 1007.8 |
| 20260504100114 | 50 | 113 | 0.0 | 2.0 | 0.00 | 0.00 | 0.00 | 71 | 1010.0 |
| 20260504081541 | 51 | 121 | 0.0 | 2.0 | 0.00 | 0.00 | 0.00 | 66 | 1010.8 |
| 20260504050021 | 51 | 111 | 0.0 | 1.0 | 0.00 | 0.00 | 0.00 | 64 | 1012.7 |
| 20260504044528 | 52 | 149 | 0.0 | 3.0 | 0.00 | 0.00 | 0.00 | 64 | 1012.7 |
| 20260504043027 | 52 | 174 | 0.0 | 1.0 | 0.00 | 0.00 | 0.00 | 62 | 1012.8 |
| 20260504041514 | 53 | 136 | 0.0 | 3.0 | 0.00 | 0.00 | 0.00 | 60 | 1012.9 |
| 20260504040017 | 53 | 135 | 0.0 | 2.0 | 0.00 | 0.00 | 0.00 | 59 | 1013.1 |
| 20260504034509 | 53 | 131 | 0.0 | 3.0 | 0.00 | 0.00 | 0.00 | 58 | 1013.3 |
| 20260504033008 | 54 | 126 | 0.0 | 3.0 | 0.00 | 0.00 | 0.00 | 58 | 1013.4 |
| 20260504031511 | 54 | 121 | 1.0 | 5.0 | 0.00 | 0.00 | 0.00 | 57 | 1013.4 |
| 20260504030008 | 55 | 175 | 0.0 | 2.0 | 0.00 | 0.00 | 0.00 | 56 | 1013.5 |
| 20260504024509 | 56 | 103 | 0.0 | 2.0 | 0.00 | 0.00 | 0.00 | 54 | 1013.7 |